| time (UTC) | temp F | wind direction | speed MPH | gust MPH | rain 1hr in | rain 24hr in | rain mn in | humidity % | barometer mb |
| 20260504234357 | 66 | 203 | 8.0 | 8.0 | 0.00 | 0.00 | 0.00 | 46 | 1026.0 |
| 20260504233857 | 67 | 203 | 3.0 | 4.0 | 0.00 | 0.00 | 0.00 | 46 | 1026.0 |
| 20260504233356 | 67 | 203 | 6.0 | 6.0 | 0.00 | 0.00 | 0.00 | 46 | 1026.0 |
| 20260504232856 | 67 | 225 | 8.0 | 8.0 | 0.00 | 0.00 | 0.00 | 45 | 1026.0 |
| 20260504232356 | 68 | 180 | 6.0 | 8.0 | 0.00 | 0.00 | 0.00 | 45 | 1026.0 |
| 20260504231856 | 69 | 225 | 4.0 | 5.0 | 0.00 | 0.00 | 0.00 | 45 | 1026.0 |
| 20260504231356 | 69 | 225 | 5.0 | 8.0 | 0.00 | 0.00 | 0.00 | 45 | 1026.0 |
| 20260504230857 | 69 | 225 | 6.0 | 8.0 | 0.00 | 0.00 | 0.00 | 45 | 1026.0 |
| 20260504230356 | 69 | 225 | 7.0 | 11.0 | 0.00 | 0.00 | 0.00 | 45 | 1026.0 |
| 20260504225857 | 69 | 225 | 7.0 | 10.0 | 0.00 | 0.00 | 0.00 | 45 | 1026.0 |
| 20260504225357 | 69 | 270 | 10.0 | 10.0 | 0.00 | 0.00 | 0.00 | 45 | 1026.0 |
| 20260504224857 | 69 | 270 | 11.0 | 14.0 | 0.00 | 0.00 | 0.00 | 44 | 1026.0 |
| 20260504224356 | 69 | 248 | 10.0 | 14.0 | 0.00 | 0.00 | 0.00 | 44 | 1026.0 |
| 20260504223856 | 69 | 270 | 8.0 | 11.0 | 0.00 | 0.00 | 0.00 | 44 | 1026.0 |
| 20260504223357 | 69 | 270 | 4.0 | 11.0 | 0.00 | 0.00 | 0.00 | 43 | 1026.0 |
| 20260504222857 | 69 | 270 | 5.0 | 10.0 | 0.00 | 0.00 | 0.00 | 43 | 1026.0 |
| 20260504222358 | 69 | 270 | 7.0 | 12.0 | 0.00 | 0.00 | 0.00 | 42 | 1026.0 |
| 20260504221856 | 70 | 270 | 9.0 | 12.0 | 0.00 | 0.00 | 0.00 | 42 | 1026.0 |
| 20260504221357 | 70 | 248 | 9.0 | 12.0 | 0.00 | 0.00 | 0.00 | 40 | 1026.0 |
| 20260504220857 | 71 | 225 | 10.0 | 10.0 | 0.00 | 0.00 | 0.00 | 39 | 1026.0 |
| 20260504220357 | 72 | 248 | 8.0 | 15.0 | 0.00 | 0.00 | 0.00 | 38 | 1026.0 |
| 20260504215856 | 72 | 270 | 8.0 | 13.0 | 0.00 | 0.00 | 0.00 | 38 | 1026.0 |
| 20260504215356 | 71 | 203 | 9.0 | 10.0 | 0.00 | 0.00 | 0.00 | 38 | 1026.0 |
| 20260504214858 | 72 | 203 | 10.0 | 15.0 | 0.00 | 0.00 | 0.00 | 38 | 1026.0 |
| 20260504214356 | 72 | 248 | 7.0 | 16.0 | 0.00 | 0.00 | 0.00 | 38 | 1026.0 |
| 20260504213856 | 73 | 248 | 11.0 | 14.0 | 0.00 | 0.00 | 0.00 | 38 | 1026.0 |
| 20260504213358 | 72 | 270 | 5.0 | 16.0 | 0.00 | 0.00 | 0.00 | 38 | 1026.0 |
| 20260504212857 | 72 | 203 | 9.0 | 18.0 | 0.00 | 0.00 | 0.00 | 38 | 1025.0 |
| 20260504212356 | 73 | 203 | 14.0 | 17.0 | 0.00 | 0.00 | 0.00 | 38 | 1026.0 |
| 20260504211856 | 73 | 225 | 13.0 | 15.0 | 0.00 | 0.00 | 0.00 | 40 | 1026.0 |
| 20260504211357 | 72 | 225 | 6.0 | 12.0 | 0.00 | 0.00 | 0.00 | 41 | 1026.0 |
| 20260504210856 | 72 | 225 | 11.0 | 12.0 | 0.00 | 0.00 | 0.00 | 41 | 1026.0 |
| 20260504210356 | 72 | 248 | 12.0 | 12.0 | 0.00 | 0.00 | 0.00 | 41 | 1026.0 |
| 20260504205857 | 72 | 270 | 12.0 | 13.0 | 0.00 | 0.00 | 0.00 | 41 | 1026.0 |
| 20260504205357 | 72 | 225 | 12.0 | 14.0 | 0.00 | 0.00 | 0.00 | 41 | 1026.0 |
| 20260504204856 | 73 | 248 | 9.0 | 11.0 | 0.00 | 0.00 | 0.00 | 42 | 1026.0 |
| 20260504204356 | 73 | 225 | 7.0 | 15.0 | 0.00 | 0.00 | 0.00 | 42 | 1026.0 |
| 20260504203857 | 72 | 225 | 13.0 | 15.0 | 0.00 | 0.00 | 0.00 | 42 | 1026.0 |
| 20260504203356 | 73 | 248 | 10.0 | 12.0 | 0.00 | 0.00 | 0.00 | 42 | 1026.0 |
| 20260504202857 | 73 | 203 | 15.0 | 15.0 | 0.00 | 0.00 | 0.00 | 42 | 1026.0 |
| 20260504202356 | 72 | 225 | 10.0 | 15.0 | 0.00 | 0.00 | 0.00 | 42 | 1026.0 |
| 20260504201857 | 73 | 248 | 12.0 | 14.0 | 0.00 | 0.00 | 0.00 | 42 | 1026.0 |
| 20260504201356 | 73 | 203 | 6.0 | 13.0 | 0.00 | 0.00 | 0.00 | 43 | 1026.0 |
| 20260504200858 | 72 | 203 | 10.0 | 15.0 | 0.00 | 0.00 | 0.00 | 44 | 1026.0 |
| 20260504200356 | 71 | 203 | 9.0 | 12.0 | 0.00 | 0.00 | 0.00 | 44 | 1026.0 |
| 20260504195856 | 72 | 225 | 8.0 | 11.0 | 0.00 | 0.00 | 0.00 | 44 | 1026.0 |
| 20260504195356 | 71 | 225 | 11.0 | 15.0 | 0.00 | 0.00 | 0.00 | 44 | 1026.0 |
| 20260504194857 | 71 | 248 | 7.0 | 14.0 | 0.00 | 0.00 | 0.00 | 45 | 1027.0 |
| 20260504194358 | 71 | 203 | 7.0 | 10.0 | 0.00 | 0.00 | 0.00 | 45 | 1027.0 |
| 20260504193856 | 71 | 225 | 10.0 | 13.0 | 0.00 | 0.00 | 0.00 | 45 | 1027.0 |
| 20260504193357 | 71 | 270 | 15.0 | 15.0 | 0.00 | 0.00 | 0.00 | 45 | 1027.0 |
| 20260504192856 | 71 | 203 | 9.0 | 13.0 | 0.00 | 0.00 | 0.00 | 45 | 1027.0 |
| 20260504192356 | 71 | 248 | 9.0 | 15.0 | 0.00 | 0.00 | 0.00 | 45 | 1027.0 |
| 20260504191856 | 71 | 225 | 12.0 | 19.0 | 0.00 | 0.00 | 0.00 | 45 | 1027.0 |
| 20260504191356 | 71 | 225 | 8.0 | 15.0 | 0.00 | 0.00 | 0.00 | 45 | 1027.0 |
| 20260504190856 | 71 | 225 | 11.0 | 17.0 | 0.00 | 0.00 | 0.00 | 45 | 1027.0 |
| 20260504190356 | 71 | 225 | 13.0 | 15.0 | 0.00 | 0.00 | 0.00 | 45 | 1027.0 |
| 20260504185856 | 71 | 248 | 8.0 | 14.0 | 0.00 | 0.00 | 0.00 | 45 | 1027.0 |
| 20260504185358 | 71 | 203 | 14.0 | 16.0 | 0.00 | 0.00 | 0.00 | 45 | 1027.0 |
| 20260504184856 | 70 | 270 | 7.0 | 15.0 | 0.00 | 0.00 | 0.00 | 45 | 1027.0 |
| 20260504184357 | 71 | 248 | 15.0 | 15.0 | 0.00 | 0.00 | 0.00 | 45 | 1027.0 |
| 20260504183857 | 71 | 203 | 13.0 | 16.0 | 0.00 | 0.00 | 0.00 | 46 | 1027.0 |
| 20260504183357 | 70 | 225 | 18.0 | 18.0 | 0.00 | 0.00 | 0.00 | 46 | 1027.0 |
| 20260504182856 | 70 | 225 | 18.0 | 18.0 | 0.00 | 0.00 | 0.00 | 46 | 1027.0 |
| 20260504182357 | 71 | 248 | 14.0 | 15.0 | 0.00 | 0.00 | 0.00 | 47 | 1028.0 |
| 20260504181857 | 70 | 203 | 7.0 | 12.0 | 0.00 | 0.00 | 0.00 | 48 | 1028.0 |
| 20260504181356 | 69 | 225 | 20.0 | 20.0 | 0.00 | 0.00 | 0.00 | 48 | 1028.0 |
| 20260504180857 | 70 | 203 | 10.0 | 14.0 | 0.00 | 0.00 | 0.00 | 48 | 1028.0 |
| 20260504180356 | 69 | 225 | 11.0 | 15.0 | 0.00 | 0.00 | 0.00 | 48 | 1028.0 |
| 20260504175856 | 69 | 203 | 10.0 | 15.0 | 0.00 | 0.00 | 0.00 | 48 | 1028.0 |
| 20260504175357 | 70 | 203 | 7.0 | 12.0 | 0.00 | 0.00 | 0.00 | 48 | 1028.0 |
| 20260504174857 | 69 | 225 | 8.0 | 11.0 | 0.00 | 0.00 | 0.00 | 49 | 1028.0 |
| 20260504174356 | 68 | 225 | 16.0 | 17.0 | 0.00 | 0.00 | 0.00 | 49 | 1028.0 |
| 20260504173856 | 68 | 248 | 12.0 | 17.0 | 0.00 | 0.00 | 0.00 | 49 | 1028.0 |
| 20260504173358 | 68 | 225 | 11.0 | 14.0 | 0.00 | 0.00 | 0.00 | 49 | 1028.0 |
| 20260504172857 | 67 | 248 | 17.0 | 17.0 | 0.00 | 0.00 | 0.00 | 50 | 1028.0 |
| 20260504172356 | 67 | 248 | 15.0 | 19.0 | 0.00 | 0.00 | 0.00 | 50 | 1028.0 |
| 20260504171857 | 67 | 248 | 14.0 | 17.0 | 0.00 | 0.00 | 0.00 | 50 | 1028.0 |
| 20260504171356 | 67 | 225 | 17.0 | 17.0 | 0.00 | 0.00 | 0.00 | 50 | 1028.0 |
| 20260504170856 | 66 | 248 | 15.0 | 18.0 | 0.00 | 0.00 | 0.00 | 50 | 1028.0 |
| 20260504170356 | 66 | 248 | 14.0 | 20.0 | 0.00 | 0.00 | 0.00 | 50 | 1029.0 |
| 20260504160357 | 65 | 248 | 15.0 | 18.0 | 0.00 | 0.00 | 0.00 | 51 | 1029.0 |
| 20260504150856 | 64 | 248 | 21.0 | 21.0 | 0.00 | 0.00 | 0.00 | 52 | 1029.0 |
| 20260504150358 | 63 | 203 | 13.0 | 15.0 | 0.00 | 0.00 | 0.00 | 52 | 1029.0 |
| 20260504140857 | 62 | 203 | 25.0 | 25.0 | 0.00 | 0.00 | 0.00 | 52 | 1029.0 |
| 20260504140358 | 62 | 203 | 21.0 | 21.0 | 0.00 | 0.00 | 0.00 | 52 | 1029.0 |
| 20260504130359 | 60 | 225 | 10.0 | 15.0 | 0.00 | 0.00 | 0.00 | 54 | 1030.0 |
| 20260504110356 | 52 | 203 | 5.0 | 8.0 | 0.00 | 0.00 | 0.00 | 62 | 1030.0 |
| 20260504100357 | 51 | 225 | 9.0 | 9.0 | 0.00 | 0.00 | 0.00 | 61 | 1029.0 |
| 20260504081857 | 51 | 203 | 3.0 | 6.0 | 0.00 | 0.00 | 0.00 | 64 | 1030.0 |
| 20260504081357 | 51 | 270 | 6.0 | 7.0 | 0.00 | 0.00 | 0.00 | 64 | 1030.0 |
| 20260504080856 | 50 | 203 | 7.0 | 8.0 | 0.00 | 0.00 | 0.00 | 65 | 1030.0 |
| 20260504080356 | 50 | 180 | 5.0 | 7.0 | 0.00 | 0.00 | 0.00 | 66 | 1030.0 |
| 20260504070356 | 48 | 180 | 2.0 | 3.0 | 0.00 | 0.00 | 0.00 | 77 | 1031.0 |
| 20260504045857 | 50 | 248 | 8.0 | 11.0 | 0.00 | 0.00 | 0.00 | 73 | 1032.0 |
| 20260504045356 | 50 | 248 | 10.0 | 14.0 | 0.00 | 0.00 | 0.00 | 73 | 1032.0 |
| 20260504044857 | 49 | 203 | 7.0 | 11.0 | 0.00 | 0.00 | 0.00 | 73 | 1032.0 |
| 20260504044356 | 49 | 270 | 7.0 | 8.0 | 0.00 | 0.00 | 0.00 | 73 | 1032.0 |
| 20260504043857 | 49 | 293 | 6.0 | 6.0 | 0.00 | 0.00 | 0.00 | 72 | 1032.0 |
| 20260504043358 | 49 | 248 | 5.0 | 7.0 | 0.00 | 0.00 | 0.00 | 72 | 1032.0 |
| 20260504042856 | 50 | 270 | 6.0 | 7.0 | 0.00 | 0.00 | 0.00 | 71 | 1031.0 |
| 20260504042356 | 50 | 270 | 7.0 | 7.0 | 0.00 | 0.00 | 0.00 | 71 | 1032.0 |
| 20260504041856 | 50 | 225 | 6.0 | 9.0 | 0.00 | 0.00 | 0.00 | 70 | 1032.0 |
| 20260504041357 | 50 | 248 | 5.0 | 13.0 | 0.00 | 0.00 | 0.00 | 70 | 1032.0 |
| 20260504040856 | 50 | 225 | 14.0 | 14.0 | 0.00 | 0.00 | 0.00 | 69 | 1032.0 |
| 20260504040356 | 50 | 225 | 7.0 | 11.0 | 0.00 | 0.00 | 0.00 | 69 | 1032.0 |
| 20260504035856 | 50 | 248 | 7.0 | 12.0 | 0.00 | 0.00 | 0.13 | 68 | 1032.0 |
| 20260504035358 | 50 | 225 | 11.0 | 12.0 | 0.00 | 0.00 | 0.13 | 67 | 1032.0 |
| 20260504034856 | 50 | 270 | 11.0 | 13.0 | 0.00 | 0.00 | 0.13 | 66 | 1032.0 |
| 20260504034356 | 51 | 225 | 12.0 | 13.0 | 0.00 | 0.00 | 0.13 | 66 | 1032.0 |
| 20260504033856 | 51 | 248 | 15.0 | 18.0 | 0.00 | 0.00 | 0.13 | 65 | 1032.0 |
| 20260504033356 | 51 | 203 | 12.0 | 15.0 | 0.00 | 0.00 | 0.13 | 64 | 1032.0 |
| 20260504032856 | 51 | 248 | 8.0 | 15.0 | 0.00 | 0.00 | 0.13 | 64 | 1032.0 |
| 20260504032356 | 52 | 248 | 13.0 | 16.0 | 0.00 | 0.00 | 0.13 | 63 | 1032.0 |
| 20260504031856 | 52 | 270 | 12.0 | 15.0 | 0.00 | 0.00 | 0.13 | 63 | 1032.0 |
| 20260504031356 | 52 | 225 | 11.0 | 17.0 | 0.00 | 0.00 | 0.13 | 62 | 1032.0 |
| 20260504030858 | 52 | 225 | 12.0 | 19.0 | 0.00 | 0.00 | 0.13 | 62 | 1032.0 |
| 20260504030357 | 53 | 270 | 9.0 | 17.0 | 0.00 | 0.00 | 0.13 | 62 | 1032.0 |
| 20260504025856 | 53 | 203 | 15.0 | 15.0 | 0.00 | 0.00 | 0.13 | 62 | 1032.0 |
| 20260504025356 | 53 | 225 | 10.0 | 15.0 | 0.00 | 0.00 | 0.13 | 63 | 1032.0 |
| 20260504024856 | 52 | 270 | 17.0 | 17.0 | 0.00 | 0.00 | 0.13 | 63 | 1032.0 |
| 20260504024404 | 52 | 225 | 11.0 | 16.0 | 0.00 | 0.00 | 0.13 | 64 | 1032.0 |
| 20260504023857 | 52 | 225 | 10.0 | 19.0 | 0.00 | 0.00 | 0.13 | 64 | 1032.0 |
| 20260504023356 | 52 | 203 | 11.0 | 18.0 | 0.00 | 0.00 | 0.13 | 64 | 1032.0 |
| 20260504022857 | 52 | 248 | 16.0 | 16.0 | 0.00 | 0.00 | 0.13 | 64 | 1032.0 |
| 20260504022356 | 52 | 203 | 18.0 | 18.0 | 0.00 | 0.00 | 0.13 | 64 | 1032.0 |
| 20260504021856 | 52 | 203 | 12.0 | 22.0 | 0.00 | 0.00 | 0.13 | 64 | 1032.0 |
| 20260504021358 | 52 | 248 | 14.0 | 18.0 | 0.00 | 0.00 | 0.13 | 64 | 1032.0 |
| 20260504020856 | 52 | 248 | 15.0 | 19.0 | 0.00 | 0.00 | 0.13 | 65 | 1032.0 |
| 20260504020356 | 51 | 270 | 6.0 | 18.0 | 0.00 | 0.00 | 0.13 | 66 | 1032.0 |
| 20260504015856 | 51 | 270 | 14.0 | 14.0 | 0.00 | 0.00 | 0.13 | 66 | 1032.0 |
| 20260504015356 | 51 | 225 | 14.0 | 17.0 | 0.00 | 0.00 | 0.13 | 66 | 1032.0 |
| 20260504014856 | 51 | 248 | 13.0 | 17.0 | 0.00 | 0.00 | 0.13 | 66 | 1032.0 |
| 20260504014357 | 51 | 248 | 12.0 | 16.0 | 0.00 | 0.00 | 0.13 | 66 | 1032.0 |
| 20260504013857 | 51 | 225 | 6.0 | 15.0 | 0.00 | 0.00 | 0.13 | 66 | 1032.0 |
| 20260504013357 | 51 | 248 | 9.0 | 12.0 | 0.00 | 0.00 | 0.13 | 66 | 1032.0 |
| 20260504012857 | 51 | 225 | 17.0 | 17.0 | 0.00 | 0.00 | 0.13 | 66 | 1032.0 |
| 20260504012356 | 51 | 203 | 15.0 | 15.0 | 0.00 | 0.00 | 0.13 | 65 | 1032.0 |
| 20260504011856 | 51 | 248 | 16.0 | 19.0 | 0.00 | 0.00 | 0.13 | 65 | 1032.0 |
| 20260504011356 | 51 | 225 | 12.0 | 18.0 | 0.00 | 0.00 | 0.13 | 64 | 1032.0 |
| 20260504010856 | 51 | 248 | 10.0 | 15.0 | 0.00 | 0.00 | 0.13 | 64 | 1032.0 |
| 20260504010356 | 51 | 248 | 15.0 | 15.0 | 0.00 | 0.00 | 0.13 | 63 | 1032.0 |
| 20260504005856 | 51 | 225 | 16.0 | 19.0 | 0.00 | 0.00 | 0.13 | 63 | 1032.0 |
| 20260504005356 | 52 | 225 | 15.0 | 17.0 | 0.00 | 0.00 | 0.13 | 62 | 1032.0 |
| 20260504004856 | 52 | 248 | 12.0 | 17.0 | 0.00 | 0.00 | 0.13 | 62 | 1032.0 |
| 20260504004356 | 52 | 225 | 12.0 | 15.0 | 0.00 | 0.00 | 0.13 | 62 | 1032.0 |
| 20260504003856 | 52 | 270 | 8.0 | 15.0 | 0.00 | 0.00 | 0.13 | 62 | 1032.0 |
| 20260504003356 | 52 | 248 | 18.0 | 18.0 | 0.00 | 0.00 | 0.13 | 62 | 1032.0 |
| 20260504002857 | 52 | 225 | 9.0 | 18.0 | 0.00 | 0.00 | 0.13 | 62 | 1032.0 |
| 20260504002356 | 52 | 248 | 7.0 | 17.0 | 0.00 | 0.00 | 0.13 | 63 | 1032.0 |
| 20260504001857 | 52 | 225 | 11.0 | 17.0 | 0.00 | 0.00 | 0.13 | 64 | 1032.0 |
| 20260504001356 | 51 | 270 | 10.0 | 16.0 | 0.00 | 0.00 | 0.13 | 64 | 1032.0 |
| 20260504000856 | 51 | 225 | 12.0 | 12.0 | 0.00 | 0.00 | 0.13 | 65 | 1032.0 |
| 20260504000356 | 51 | 270 | 10.0 | 11.0 | 0.00 | 0.00 | 0.13 | 65 | 1032.0 |
| 20260503235857 | 51 | 225 | 5.0 | 15.0 | 0.00 | 0.00 | 0.13 | 65 | 1032.0 |
| 20260503235356 | 51 | 248 | 12.0 | 15.0 | 0.00 | 0.00 | 0.13 | 66 | 1032.0 |
| 20260503234857 | 51 | 203 | 8.0 | 11.0 | 0.00 | 0.00 | 0.13 | 66 | 1032.0 |